STARLINK-32134, 60300

Orbit data source: Space-Track

STARLINK-32134, 60300 is a payload satellite owned by SpaceX/Seattle (US) in LEO that was launched on Sun, 28 Jul 2024 UTC via an FALCON 9 launch vehicle from the Air Force Eastern Test Range (AFETR). Payload-class satellites include a variety of spacecraft equipped with specific instruments for various scientific and technological missions. These include communications satellites like Starlink; space stations such as the ISS; scientific satellites like the Hubble; Earth observation satellites from companies like Planet Labs, Umbra, and HawkEye 360; GPS; miniature CubeSats for education and research; and military/defense satellites.

Loading next visibility...
Identifier
60300, 2024-132Y
Orbit
LEO
Last TLE update
14 hours ago
Origin
Manufacturer
SpaceX/Seattle
Mission
Operational spacecraft
Bus & Motor
STARLINK V2M, Unknown motor
Mass
730 kg wet, ~700 kg dry
Launch date (UTC)
2024-07-28 (9 months ago)
Launch vehicle
FALCON 9
Launch site
Air Force Eastern Test Range (AFETR)
Object type
Payload
Rocket body
Debris
Shape & HBR
Unknown
Radar Cross Section
Large (>1 m²)

Expand to show TLE details & history

TLE from 14 hours ago
0 STARLINK-32134
1 60300U 24132Y   25109.42127710 -.00000584  00000-0 -75908-5 0  9995
2 60300  53.1605 118.6073 0001340  87.0305 273.0849 15.30188800 41910
Epoch: 2025-04-19T10:06Z
Definitive object data (Epoch: 2025-04-19T10:06:38.341Z)
Latitude
-0.00003°
Longitude
119.18281°
Altitude
476.099 km
Speed
7.629 km/s
True Right ascension
07h 54m 25s
True Declination
0° 00' 00"
Sunlit
Object was in daylight at TLE epoch
Visualization TLE readout
Latitude
-7.85483°
Longitude
110.56048°
Altitude
477.638 km
Speed
7.628 km/s
Apparent Right ascension
08h 01m 47s
Apparent Declination
-68° 49' 16"
Sunlit
Object is in daylight
Visualization observer readout
Local Sidereal Time
07:03:27
Azimuth
174.471° S
Elevation
-19.278°
Doppler factor
1
Orbital elements
Apogee altitude
476.423 km
Perigee altitude
474.586 km
Semi-major axis
6,853.642 km
Eccentricity
0.000134
Inclination
53.1605°
RAAN
118.6073°
Arg. of periapsis
87.0305°
True anomaly
273.06957°
Mean anomaly
273.0849°
Eccentric anomaly
273.07723°
Mean motion
3.82526 °/min
BSTAR
-0.0000075908
Orbital period
94.11 mins
Loading maneuver chart data...
Loading SW <> Apogee altitude chart data...
Loading historical data...
Loading historical data...
Loading historical data...
Loading historical data...
Loading historical data...
Loading historical data...
Loading historical data...

STARLINK-32134 Visibility forecast

Observer location: undefined°, undefined°

Span
Click to sort rows by Start time (UTC) header in descending order
Start Az.
Max El. time (UTC)
Max El. Az.
Max El.
End time (UTC)
End Az.
5 mins2025-04-20 03:33:33.977Z243.019° WSW2025-04-20 03:35:33.977Z313.834° NW42.861°2025-04-20 03:38:33.977Z44.094° NE
4 mins2025-04-20 08:30:33.977Z346.804° N2025-04-20 08:32:33.977Z27.049° NE18.129°2025-04-20 08:34:33.977Z64.322° ENE
5 mins2025-04-20 10:08:33.977Z307.157° NW2025-04-20 10:10:33.977Z262.335° W44.584°2025-04-20 10:13:33.977Z134.413° SE
|